User: anonymous   Login
Location: Reading
(52.0000°N, 0.0000°E)
Time: 07:40:24
(UTC+00:00)
Language:

Iridium 41 - Orbit

View from above orbital plane
View from above orbital plane
View from above satellite
View from above satellite

Ground track
Ground track

The orbit data is extracted from the following two-line orbital elements,

1 25040U 97069B   14329.29316117  .00000576  00000-0  19871-3 0   405
2 25040 086.3985 052.7151 0002373 114.3529 303.7027 14.34217286892316
Epoch (UTC): 25 November 2014 07:02:09
Eccentricity: 0.0002373
inclination: 86.3985°
perigee height: 776 km
apogee height: 779 km
right ascension of ascending node: 52.7151°
argument of perigee: 114.3529°
revolutions per day: 14.34217286
mean anomaly at epoch: 303.7027°
orbit number at epoch: 89231

The dashed part of the orbit path shows where the satellite is in the earth's shadow,  

DLR